Погода в Косе

Греция     36°54′03″N   27°16′56″E
темп.,
°C
ветер,
м/с
пор.,
м/с
влажн.,
%
обл.,
%
осадки,
мм/ч
давл.,
гПа
погр.,
м
4 марта, чт
чт423:00+12с79640 0.0 1023348
02:00+10с68670 0.0 1022278
05:00+10с78690 0.0 1021303
08:00+10с68630 0.0 1021299
11:00+13ссз67520 0.0 1021451
14:00+14ссз78520 0.0 1019491
17:00+14сз78550 0.0 1019514
20:00+14сз68580 0.0 1020453
5 марта, пт
пт523:00+13ссз45590 0.0 1021357
02:00+12ссз33620 0.0 1020302
05:00+12ссз23610 0.0 1020293
08:00+12св11590 0.0 1021117
11:00+15ююз23530 0.0 1021486
14:00+16юз34540 0.0 1020687
17:00+16юз33570 0.0 1020516
20:00+14ююз33650 0.0 1021282
6 марта, сб
сб623:00+13ююв226496 0.0 1022236
02:00+14юв336586 0.0 1022332
05:00+14вюв5569100 0.0 1022504
08:00+15юв5673100 0.0 1023608
11:00+16ю5668100 0.0 1023845
14:00+16ю556789 0.0 1021776
17:00+16ю33670 0.0 1020414
20:00+15ю11690 0.0 1022177
7 марта, вс
вс723:00+14св11680 0.0 1022130
02:00+13св22790 0.0 1021110
05:00+13ссв22780 0.0 1021129
08:00+14с33770 0.0 1021288
11:00+15ссз55690 0.0 1021509
14:00+15сз78650 0.0 1019613
17:00+15ссз89640 0.0 1018733
20:00+14ссз810670 0.0 1019547
8 марта, пн
пн823:00+13ссз79730 0.0 1019447
02:00+12ссз67730 0.0 1018400
05:00+11ссз56720 0.0 1018360
08:00+11ссз56700 0.0 1019381
11:00+13ссз56620 0.0 1018428
14:00+14сз56551 0.0 1017434
17:00+14ссз45561 0.0 1016350
20:00+14ссз445618 0.0 1016278